Location: Lowman
(44.0835°N, 115.6207°W)
Time: 02:46:51
(UTC+00:00)

Tiangong - Pass Details

Date: 02 December 2022
Orbit: 383 x 386 km, 41.5° (Epoch: 03 February)

Event Time Altitude Azimuth Distance (km) Brightness Sun altitude
Rises 01:24:36 0° 232° (SW) 2,245 3.2 -13.8°
Reaches altitude 10° 01:26:51 10° 220° (SW) 1,396 1.6 -14.2°
Maximum altitude 01:29:34 27° 160° (SSE) 781 -0.6 -14.7°
Enters shadow 01:30:40 21° 125° (SE) 915 -0.6 -14.9°
